| time (UTC) | temp F | wind direction | speed MPH | gust MPH | rain 1hr in | rain 24hr in | rain mn in | humidity % | barometer mb |
| 20260507184537 | 63 | 24 | 6.0 | 14.0 | 0.00 | 0.00 | 0.00 | 52 | 1019.3 |
| 20260507181537 | 63 | 23 | 7.0 | 15.0 | 0.00 | 0.00 | 0.00 | 52 | 1019.4 |
| 20260507180110 | 63 | 37 | 4.0 | 9.0 | 0.00 | 0.00 | 0.00 | 54 | 1019.6 |
| 20260507174537 | 62 | 45 | 5.0 | 10.0 | 0.00 | 0.00 | 0.00 | 55 | 1019.8 |
| 20260507173035 | 61 | 43 | 5.0 | 10.0 | 0.00 | 0.00 | 0.00 | 57 | 1020.0 |
| 20260507171538 | 60 | 45 | 5.0 | 11.0 | 0.00 | 0.00 | 0.00 | 58 | 1020.1 |
| 20260507170031 | 59 | 24 | 4.0 | 8.0 | 0.00 | 0.00 | 0.00 | 60 | 1020.0 |
| 20260507163037 | 59 | 44 | 4.0 | 11.0 | 0.00 | 0.00 | 0.00 | 61 | 1020.2 |
| 20260507160111 | 58 | 22 | 4.0 | 8.0 | 0.00 | 0.00 | 0.00 | 63 | 1020.3 |
| 20260507154609 | 58 | 27 | 3.0 | 8.0 | 0.00 | 0.00 | 0.00 | 65 | 1020.4 |
| 20260507153036 | 57 | 50 | 3.0 | 6.0 | 0.00 | 0.00 | 0.00 | 68 | 1020.4 |
| 20260507151537 | 56 | 89 | 2.0 | 6.0 | 0.00 | 0.00 | 0.00 | 69 | 1020.5 |
| 20260507150051 | 55 | 102 | 1.0 | 7.0 | 0.00 | 0.00 | 0.00 | 73 | 1020.5 |
| 20260507144537 | 51 | 52 | 1.0 | 5.0 | 0.00 | 0.00 | 0.00 | 79 | 1020.5 |
| 20260507141534 | 49 | 58 | 4.0 | 9.0 | 0.00 | 0.00 | 0.00 | 83 | 1020.4 |
| 20260507140111 | 49 | 48 | 4.0 | 11.0 | 0.00 | 0.00 | 0.00 | 83 | 1020.1 |
| 20260507134538 | 49 | 51 | 3.0 | 10.0 | 0.00 | 0.00 | 0.00 | 80 | 1020.0 |
| 20260507133033 | 52 | 353 | 3.0 | 8.0 | 0.00 | 0.00 | 0.00 | 73 | 1019.9 |
| 20260507131536 | 53 | 241 | 6.0 | 15.0 | 0.00 | 0.00 | 0.00 | 72 | 1019.8 |
| 20260507130036 | 53 | 241 | 5.0 | 12.0 | 0.00 | 0.00 | 0.00 | 73 | 1019.7 |
| 20260507124608 | 53 | 263 | 3.0 | 10.0 | 0.00 | 0.00 | 0.00 | 72 | 1019.8 |
| 20260507123035 | 54 | 256 | 6.0 | 18.0 | 0.00 | 0.00 | 0.00 | 71 | 1019.8 |
| 20260507121536 | 54 | 248 | 8.0 | 20.0 | 0.00 | 0.00 | 0.00 | 71 | 1019.7 |
| 20260507114609 | 54 | 248 | 9.0 | 23.0 | 0.00 | 0.00 | 0.00 | 72 | 1019.5 |
| 20260507113143 | 54 | 251 | 9.0 | 21.0 | 0.00 | 0.00 | 0.00 | 72 | 1019.4 |
| 20260507111536 | 54 | 241 | 10.0 | 24.0 | 0.00 | 0.00 | 0.00 | 72 | 1019.4 |
| 20260507110032 | 54 | 242 | 9.0 | 23.0 | 0.00 | 0.00 | 0.00 | 72 | 1019.3 |
| 20260507104532 | 55 | 236 | 11.0 | 23.0 | 0.00 | 0.00 | 0.00 | 72 | 1019.4 |
| 20260507101536 | 55 | 230 | 9.0 | 18.0 | 0.00 | 0.00 | 0.00 | 70 | 1019.6 |
| 20260507100042 | 56 | 230 | 9.0 | 21.0 | 0.00 | 0.00 | 0.00 | 69 | 1019.6 |
| 20260507094535 | 56 | 226 | 10.0 | 17.0 | 0.00 | 0.00 | 0.00 | 69 | 1019.6 |
| 20260507093033 | 56 | 226 | 10.0 | 21.0 | 0.00 | 0.00 | 0.00 | 68 | 1019.6 |
| 20260507091535 | 57 | 235 | 9.0 | 21.0 | 0.00 | 0.00 | 0.00 | 68 | 1019.7 |
| 20260507090036 | 57 | 230 | 9.0 | 20.0 | 0.00 | 0.00 | 0.00 | 68 | 1019.7 |
| 20260507084535 | 57 | 226 | 9.0 | 20.0 | 0.00 | 0.00 | 0.00 | 69 | 1019.8 |
| 20260507083037 | 57 | 224 | 10.0 | 24.0 | 0.00 | 0.00 | 0.00 | 69 | 1019.8 |
| 20260507081532 | 57 | 224 | 11.0 | 22.0 | 0.00 | 0.00 | 0.00 | 69 | 1020.0 |
| 20260507080034 | 57 | 226 | 12.0 | 21.0 | 0.00 | 0.00 | 0.00 | 69 | 1020.0 |
| 20260507073037 | 58 | 226 | 11.0 | 23.0 | 0.00 | 0.00 | 0.00 | 69 | 1020.0 |
| 20260507071608 | 58 | 229 | 10.0 | 21.0 | 0.00 | 0.00 | 0.00 | 69 | 1020.1 |
| 20260507070035 | 58 | 230 | 9.0 | 18.0 | 0.00 | 0.00 | 0.00 | 68 | 1020.1 |
| 20260507064537 | 59 | 228 | 9.0 | 19.0 | 0.00 | 0.00 | 0.00 | 68 | 1020.1 |
| 20260507063033 | 59 | 230 | 9.0 | 19.0 | 0.00 | 0.00 | 0.00 | 68 | 1020.2 |
| 20260507061535 | 59 | 227 | 9.0 | 22.0 | 0.00 | 0.00 | 0.00 | 68 | 1020.2 |
| 20260507060034 | 58 | 237 | 5.0 | 11.0 | 0.00 | 0.00 | 0.00 | 70 | 1020.5 |
| 20260507053034 | 59 | 289 | 2.0 | 7.0 | 0.00 | 0.00 | 0.00 | 68 | 1020.6 |
| 20260507051534 | 60 | 236 | 6.0 | 17.0 | 0.00 | 0.00 | 0.00 | 67 | 1020.6 |
| 20260507050035 | 60 | 228 | 7.0 | 15.0 | 0.00 | 0.00 | 0.00 | 66 | 1020.7 |
| 20260507044530 | 60 | 228 | 7.0 | 17.0 | 0.00 | 0.00 | 0.00 | 65 | 1020.6 |
| 20260507043030 | 60 | 225 | 9.0 | 16.0 | 0.00 | 0.00 | 0.00 | 64 | 1020.5 |
| 20260507041534 | 61 | 220 | 10.0 | 18.0 | 0.00 | 0.00 | 0.00 | 63 | 1020.3 |
| 20260507040045 | 61 | 223 | 9.0 | 17.0 | 0.00 | 0.00 | 0.00 | 62 | 1020.1 |
| 20260507033030 | 61 | 224 | 8.0 | 16.0 | 0.00 | 0.00 | 0.00 | 60 | 1020.1 |
| 20260507024535 | 64 | 219 | 9.0 | 21.0 | 0.00 | 0.00 | 0.00 | 54 | 1019.9 |
| 20260507023031 | 65 | 224 | 10.0 | 18.0 | 0.00 | 0.00 | 0.00 | 53 | 1019.8 |
| 20260507021535 | 66 | 221 | 10.0 | 22.0 | 0.00 | 0.00 | 0.00 | 52 | 1019.7 |
| 20260507020035 | 67 | 226 | 10.0 | 21.0 | 0.00 | 0.00 | 0.00 | 51 | 1019.6 |
| 20260507014529 | 68 | 232 | 8.0 | 17.0 | 0.00 | 0.00 | 0.00 | 50 | 1019.5 |
| 20260507013111 | 68 | 231 | 8.0 | 20.0 | 0.00 | 0.00 | 0.00 | 50 | 1019.4 |
| 20260507004535 | 70 | 231 | 9.0 | 18.0 | 0.00 | 0.00 | 0.00 | 45 | 1019.3 |
| 20260507003037 | 72 | 248 | 9.0 | 17.0 | 0.00 | 0.00 | 0.00 | 43 | 1019.2 |
| 20260507001531 | 72 | 246 | 7.0 | 17.0 | 0.00 | 0.00 | 0.00 | 43 | 1019.0 |
| 20260507000108 | 71 | 244 | 6.0 | 15.0 | 0.00 | 0.00 | 0.00 | 46 | 1019.0 |
| 20260506234534 | 69 | 187 | 3.0 | 14.0 | 0.00 | 0.00 | 0.00 | 51 | 1019.0 |
| 20260506233037 | 68 | 54 | 3.0 | 8.0 | 0.00 | 0.00 | 0.00 | 51 | 1019.1 |
| 20260506231610 | 69 | 41 | 4.0 | 8.0 | 0.00 | 0.00 | 0.00 | 50 | 1019.0 |
| 20260506230147 | 72 | 360 | 4.0 | 16.0 | 0.00 | 0.00 | 0.00 | 46 | 1019.0 |
| 20260506224534 | 73 | 291 | 4.0 | 13.0 | 0.00 | 0.00 | 0.00 | 45 | 1019.1 |
| 20260506223151 | 74 | 306 | 5.0 | 14.0 | 0.00 | 0.00 | 0.00 | 44 | 1019.1 |
| 20260506221537 | 73 | 308 | 5.0 | 16.0 | 0.00 | 0.00 | 0.00 | 46 | 1019.1 |
| 20260506214610 | 72 | 348 | 9.0 | 16.0 | 0.00 | 0.00 | 0.00 | 49 | 1019.0 |
| 20260506213036 | 73 | 359 | 7.0 | 16.0 | 0.00 | 0.00 | 0.00 | 50 | 1019.0 |
| 20260506211534 | 71 | 72 | 4.0 | 11.0 | 0.00 | 0.00 | 0.00 | 52 | 1019.1 |
| 20260506210153 | 71 | 36 | 5.0 | 13.0 | 0.00 | 0.00 | 0.00 | 52 | 1019.2 |
| 20260506204534 | 70 | 40 | 6.0 | 12.0 | 0.00 | 0.00 | 0.00 | 52 | 1019.3 |
| 20260506203036 | 70 | 359 | 7.0 | 13.0 | 0.00 | 0.00 | 0.00 | 55 | 1019.5 |
| 20260506200033 | 69 | 10 | 7.0 | 13.0 | 0.00 | 0.00 | 0.00 | 56 | 1019.5 |
| 20260506194612 | 69 | 6 | 6.0 | 11.0 | 0.00 | 0.00 | 0.00 | 56 | 1019.5 |
| 20260506193036 | 69 | 23 | 6.0 | 12.0 | 0.00 | 0.00 | 0.00 | 58 | 1019.6 |
| 20260506191531 | 68 | 2 | 7.0 | 14.0 | 0.00 | 0.00 | 0.00 | 59 | 1019.7 |
| 20260506190042 | 68 | 9 | 7.0 | 12.0 | 0.00 | 0.00 | 0.00 | 61 | 1019.8 |